Location: Andrest
(43.3200°N, 0.0641°E)
Time: 03:59:08
(UTC+00:00)

COSMO-SKYMED 1 - Pass Details

Date: 19 April 2021
Orbit: 621 x 623 km, 97.9° (Epoch: 18 May)

Event Time Altitude Azimuth Distance (km) Brightness Sun altitude
Rises 04:05:21 0° 128° (SE) 2,895 6.3 -11.9°
Reaches altitude 10° 04:08:00 10° 112° (ESE) 1,993 5.8 -11.4°
Maximum altitude 04:11:08 20° 65° (ENE) 1,454 5.7 -10.9°
Drops below altitude 10° 04:14:18 10° 18° (NNE) 2,003 5.9 -10.4°
Sets 04:16:57 0° 2° (N) 2,915 6.4 -10.0°
